Time,TemperatureF,DewpointF,PressureIn,WindDirection,WindDirectionDegrees,WindSpeedMPH,WindSpeedGustMPH,Humidity,HourlyPrecipIn,Conditions,Clouds,dailyrainin,SoftwareType,DateUTC
2013-01-05 00:00:00,31.6,27.1,30.40,NNE,19,0.0,0.0,83,0.00,,,0.00,Meteorologica,2013-01-05 05:00:00,
2013-01-05 00:02:00,31.5,27.0,30.40,NNE,19,0.0,0.0,83,0.00,,,0.00,Meteorologica,2013-01-05 05:02:00,
2013-01-05 00:07:00,31.5,27.0,30.40,NNE,19,0.0,0.0,83,0.00,,,0.00,Meteorologica,2013-01-05 05:07:00,
2013-01-05 00:13:00,31.5,26.8,30.40,NNE,19,0.0,0.0,82,0.00,,,0.00,Meteorologica,2013-01-05 05:13:00,
2013-01-05 00:18:00,31.3,26.6,30.41,NNE,19,0.0,0.0,82,0.00,,,0.00,Meteorologica,2013-01-05 05:18:00,
2013-01-05 00:23:00,31.3,26.7,30.40,NNE,19,0.0,0.0,83,0.00,,,0.00,Meteorologica,2013-01-05 05:23:00,
2013-01-05 00:29:00,31.3,26.9,30.40,NNE,19,0.0,0.0,83,0.00,,,0.00,Meteorologica,2013-01-05 05:29:00,
2013-01-05 00:34:00,31.1,26.6,30.40,NNE,19,0.0,0.0,83,0.00,,,0.00,Meteorologica,2013-01-05 05:34:00,
2013-01-05 00:38:00,31.2,26.7,30.40,NNE,19,0.0,0.0,83,0.00,,,0.00,Meteorologica,2013-01-05 05:38:00,
2013-01-05 00:43:00,30.9,26.4,30.40,NNE,19,0.0,0.0,83,0.00,,,0.00,Meteorologica,2013-01-05 05:43:00,
2013-01-05 00:49:00,31.0,26.4,30.40,NNE,19,0.0,0.0,82,0.00,,,0.00,Meteorologica,2013-01-05 05:49:00,
2013-01-05 00:54:00,30.8,26.2,30.40,NNE,19,0.0,0.0,82,0.00,,,0.00,Meteorologica,2013-01-05 05:54:00,
2013-01-05 00:59:00,30.7,26.8,30.39,NNE,19,0.0,0.0,85,0.00,,,0.00,Meteorologica,2013-01-05 05:59:00,
2013-01-05 01:04:00,30.6,26.9,30.38,NNE,19,0.0,0.0,86,0.00,,,0.00,Meteorologica,2013-01-05 06:04:00,
2013-01-05 01:09:00,30.4,26.8,30.38,NNE,19,0.0,0.0,86,0.00,,,0.00,Meteorologica,2013-01-05 06:09:00,
2013-01-05 01:14:00,30.2,26.7,30.38,NNE,19,0.0,0.0,86,0.00,,,0.00,Meteorologica,2013-01-05 06:14:00,
2013-01-05 01:19:00,30.2,27.0,30.39,NNE,19,0.0,0.0,87,0.00,,,0.00,Meteorologica,2013-01-05 06:19:00,
2013-01-05 01:24:00,30.2,27.1,30.39,NNE,19,0.0,0.0,88,0.00,,,0.00,Meteorologica,2013-01-05 06:24:00,
2013-01-05 01:29:00,30.1,27.0,30.39,NNE,19,0.0,0.0,88,0.00,,,0.00,Meteorologica,2013-01-05 06:29:00,
2013-01-05 01:35:00,30.0,26.9,30.39,NNE,19,0.0,0.0,88,0.00,,,0.00,Meteorologica,2013-01-05 06:35:00,
2013-01-05 01:40:00,29.9,26.9,30.39,NNE,19,0.0,0.0,88,0.00,,,0.00,Meteorologica,2013-01-05 06:40:00,
2013-01-05 01:46:00,29.8,26.9,30.39,NNE,19,0.0,0.0,88,0.00,,,0.00,Meteorologica,2013-01-05 06:46:00,
2013-01-05 01:50:00,29.7,26.9,30.39,NNE,19,0.0,0.0,89,0.00,,,0.00,Meteorologica,2013-01-05 06:50:00,
2013-01-05 01:55:00,29.7,26.9,30.39,NNE,19,0.0,0.0,89,0.00,,,0.00,Meteorologica,2013-01-05 06:55:00,
2013-01-05 02:00:00,29.6,26.8,30.39,NNE,19,0.0,0.0,89,0.00,,,0.00,Meteorologica,2013-01-05 07:00:00,
2013-01-05 02:05:00,29.5,27.0,30.39,NNE,19,0.0,0.0,90,0.00,,,0.00,Meteorologica,2013-01-05 07:05:00,
2013-01-05 02:11:00,29.5,27.1,30.39,NNE,19,0.0,0.0,90,0.00,,,0.00,Meteorologica,2013-01-05 07:11:00,
2013-01-05 02:15:00,29.4,27.0,30.39,NNE,19,0.0,0.0,90,0.00,,,0.00,Meteorologica,2013-01-05 07:15:00,
2013-01-05 02:20:00,29.3,26.9,30.39,NNE,19,0.0,0.0,90,0.00,,,0.00,Meteorologica,2013-01-05 07:20:00,
2013-01-05 02:25:00,29.2,26.8,30.39,NNE,19,0.0,0.0,90,0.00,,,0.00,Meteorologica,2013-01-05 07:25:00,
2013-01-05 02:30:00,29.1,26.9,30.39,NNE,19,0.0,0.0,91,0.00,,,0.00,Meteorologica,2013-01-05 07:30:00,
2013-01-05 02:35:00,29.0,27.4,30.38,NNE,19,0.0,0.0,93,0.00,,,0.00,Meteorologica,2013-01-05 07:35:00,
2013-01-05 02:40:00,28.8,28.1,30.39,NNE,19,0.0,0.0,97,0.00,,,0.00,Meteorologica,2013-01-05 07:40:00,
2013-01-05 02:45:00,28.8,28.2,30.39,NNE,19,0.0,0.0,97,0.00,,,0.00,Meteorologica,2013-01-05 07:45:00,
2013-01-05 02:50:00,28.8,28.0,30.39,NNE,19,0.0,0.0,96,0.00,,,0.00,Meteorologica,2013-01-05 07:50:00,
2013-01-05 02:55:00,28.9,28.1,30.39,NNE,19,0.0,0.0,96,0.00,,,0.00,Meteorologica,2013-01-05 07:55:00,
2013-01-05 03:00:00,29.0,28.1,30.38,NNE,19,0.0,0.0,96,0.00,,,0.00,Meteorologica,2013-01-05 08:00:00,
2013-01-05 03:05:00,29.0,28.3,30.38,NNE,19,0.0,0.0,97,0.00,,,0.00,Meteorologica,2013-01-05 08:05:00,
2013-01-05 03:10:00,28.9,28.2,30.38,NNE,19,0.0,0.0,97,0.00,,,0.00,Meteorologica,2013-01-05 08:10:00,
2013-01-05 03:15:00,28.9,28.1,30.38,NNE,19,0.0,0.0,96,0.00,,,0.00,Meteorologica,2013-01-05 08:15:00,
2013-01-05 03:21:00,28.9,28.2,30.38,NNE,19,0.0,0.0,97,0.00,,,0.00,Meteorologica,2013-01-05 08:21:00,
2013-01-05 03:26:00,29.0,28.4,30.38,NNE,19,0.0,0.0,97,0.00,,,0.00,Meteorologica,2013-01-05 08:26:00,
2013-01-05 03:31:00,29.0,28.3,30.37,NNE,19,0.0,0.0,97,0.00,,,0.00,Meteorologica,2013-01-05 08:31:00,
2013-01-05 03:36:00,29.0,28.1,30.37,NNE,19,0.0,0.0,96,0.00,,,0.00,Meteorologica,2013-01-05 08:36:00,
2013-01-05 03:41:00,29.2,28.0,30.37,NNE,19,0.0,0.0,95,0.00,,,0.00,Meteorologica,2013-01-05 08:41:00,
2013-01-05 03:46:00,29.3,28.0,30.37,NNE,19,0.0,0.0,94,0.00,,,0.00,Meteorologica,2013-01-05 08:46:00,
2013-01-05 03:52:00,29.5,27.8,30.37,NNE,19,0.0,0.0,93,0.00,,,0.00,Meteorologica,2013-01-05 08:52:00,
2013-01-05 03:57:00,29.3,27.4,30.37,NNE,19,0.0,0.0,92,0.00,,,0.00,Meteorologica,2013-01-05 08:57:00,
2013-01-05 04:02:00,29.3,27.2,30.37,NNE,19,0.0,0.0,92,0.00,,,0.00,Meteorologica,2013-01-05 09:02:00,
2013-01-05 04:07:00,29.4,27.2,30.37,NNE,19,0.0,0.0,91,0.00,,,0.00,Meteorologica,2013-01-05 09:07:00,
2013-01-05 04:12:00,29.2,27.0,30.38,NNE,19,0.0,0.0,91,0.00,,,0.00,Meteorologica,2013-01-05 09:12:00,
2013-01-05 04:17:00,29.2,27.2,30.38,NNE,19,0.0,0.0,92,0.00,,,0.00,Meteorologica,2013-01-05 09:17:00,
2013-01-05 04:22:00,29.2,27.3,30.38,NNE,19,0.0,0.0,92,0.00,,,0.00,Meteorologica,2013-01-05 09:22:00,
2013-01-05 04:27:00,29.2,27.4,30.38,NNE,19,0.0,0.0,92,0.00,,,0.00,Meteorologica,2013-01-05 09:27:00,
2013-01-05 04:32:00,29.2,27.6,30.38,NNE,19,0.0,0.0,93,0.00,,,0.00,Meteorologica,2013-01-05 09:32:00,
2013-01-05 04:37:00,29.2,28.1,30.38,NNE,19,0.0,0.0,95,0.00,,,0.00,Meteorologica,2013-01-05 09:37:00,
2013-01-05 04:42:00,29.1,28.4,30.38,NNE,19,0.0,0.0,97,0.00,,,0.00,Meteorologica,2013-01-05 09:42:00,
2013-01-05 04:47:00,29.0,28.4,30.38,NNE,19,0.0,0.0,97,0.00,,,0.00,Meteorologica,2013-01-05 09:47:00,
2013-01-05 04:53:00,29.0,28.4,30.38,NNE,19,0.0,0.0,97,0.00,,,0.00,Meteorologica,2013-01-05 09:53:00,
2013-01-05 04:57:00,29.0,28.4,30.38,NNE,19,0.0,0.0,97,0.00,,,0.00,Meteorologica,2013-01-05 09:57:00,
2013-01-05 05:03:00,29.0,28.5,30.38,NNE,19,0.0,0.0,98,0.00,,,0.00,Meteorologica,2013-01-05 10:03:00,
2013-01-05 05:08:00,28.9,28.7,30.38,NNE,19,0.0,0.0,99,0.00,,,0.00,Meteorologica,2013-01-05 10:08:00,
2013-01-05 05:13:00,28.8,28.7,30.37,NNE,19,0.0,0.0,99,0.00,,,0.00,Meteorologica,2013-01-05 10:13:00,
2013-01-05 05:18:00,28.7,28.7,30.37,NNE,19,0.0,0.0,100,0.00,,,0.00,Meteorologica,2013-01-05 10:18:00,
2013-01-05 05:23:00,28.4,28.4,30.37,NNE,19,0.0,0.0,100,0.00,,,0.00,Meteorologica,2013-01-05 10:23:00,
2013-01-05 05:28:00,28.3,28.3,30.38,NNE,19,0.0,0.0,100,0.00,,,0.00,Meteorologica,2013-01-05 10:28:00,
2013-01-05 05:34:00,28.7,28.7,30.38,NNE,19,0.0,0.0,100,0.00,,,0.00,Meteorologica,2013-01-05 10:34:00,
2013-01-05 05:39:00,29.0,29.0,30.38,NNE,19,0.0,0.0,100,0.00,,,0.00,Meteorologica,2013-01-05 10:39:00,
2013-01-05 05:44:00,29.3,29.3,30.38,NNE,19,0.0,0.0,100,0.00,,,0.00,Meteorologica,2013-01-05 10:44:00,
2013-01-05 05:49:00,29.4,29.3,30.38,NNE,19,0.0,0.0,99,0.00,,,0.00,Meteorologica,2013-01-05 10:49:00,
2013-01-05 05:54:00,29.4,29.2,30.39,NNE,19,0.0,0.0,99,0.00,,,0.00,Meteorologica,2013-01-05 10:54:00,
2013-01-05 05:59:00,29.3,29.1,30.39,NNE,19,0.0,0.0,99,0.00,,,0.00,Meteorologica,2013-01-05 10:59:00,
2013-01-05 06:05:00,29.3,29.3,30.39,NNE,19,0.0,0.0,100,0.00,,,0.00,Meteorologica,2013-01-05 11:05:00,
2013-01-05 06:10:00,29.2,29.2,30.39,NNE,19,0.0,0.0,100,0.00,,,0.00,Meteorologica,2013-01-05 11:10:00,
2013-01-05 06:15:00,29.1,29.1,30.39,NNE,19,0.0,0.0,100,0.00,,,0.00,Meteorologica,2013-01-05 11:15:00,
2013-01-05 06:20:00,29.0,29.0,30.39,NNE,19,0.0,0.0,100,0.00,,,0.00,Meteorologica,2013-01-05 11:20:00,
2013-01-05 06:25:00,28.8,28.8,30.38,NNE,19,0.0,0.0,100,0.00,,,0.00,Meteorologica,2013-01-05 11:25:00,
2013-01-05 06:30:00,28.7,28.7,30.39,NNE,19,0.0,0.0,100,0.00,,,0.00,Meteorologica,2013-01-05 11:30:00,
2013-01-05 06:36:00,28.5,28.5,30.39,NNE,19,0.0,0.0,100,0.00,,,0.00,Meteorologica,2013-01-05 11:36:00,
2013-01-05 06:41:00,28.4,28.4,30.39,NNE,19,0.0,0.0,100,0.00,,,0.00,Meteorologica,2013-01-05 11:41:00,
2013-01-05 06:46:00,28.5,28.5,30.39,NNE,19,0.0,0.0,100,0.00,,,0.00,Meteorologica,2013-01-05 11:46:00,
2013-01-05 06:51:00,28.4,28.4,30.39,NNE,19,0.0,0.0,100,0.00,,,0.00,Meteorologica,2013-01-05 11:51:00,
2013-01-05 06:57:00,28.6,28.6,30.39,NNE,19,0.0,0.0,100,0.00,,,0.00,Meteorologica,2013-01-05 11:57:00,
2013-01-05 07:02:00,28.6,28.6,30.39,NNE,19,0.0,0.0,100,0.00,,,0.00,Meteorologica,2013-01-05 12:02:00,
2013-01-05 07:07:00,28.4,28.4,30.39,NNE,19,0.0,0.0,100,0.00,,,0.00,Meteorologica,2013-01-05 12:07:00,
2013-01-05 07:12:00,28.6,28.6,30.40,NNE,19,0.0,0.0,100,0.00,,,0.00,Meteorologica,2013-01-05 12:12:00,
2013-01-05 07:17:00,28.4,28.4,30.40,NNE,19,0.0,0.0,100,0.00,,,0.00,Meteorologica,2013-01-05 12:17:00,
2013-01-05 07:22:00,28.5,28.5,30.40,NNE,19,0.0,0.0,100,0.00,,,0.00,Meteorologica,2013-01-05 12:22:00,
2013-01-05 07:27:00,28.3,28.3,30.40,NNE,19,0.0,0.0,100,0.00,,,0.00,Meteorologica,2013-01-05 12:27:00,
2013-01-05 07:33:00,28.4,28.4,30.40,NNE,19,0.0,0.0,100,0.00,,,0.00,Meteorologica,2013-01-05 12:33:00,
2013-01-05 07:38:00,28.3,28.3,30.39,NNE,19,0.0,0.0,100,0.00,,,0.00,Meteorologica,2013-01-05 12:38:00,
2013-01-05 07:43:00,28.2,28.2,30.40,NNE,19,0.0,0.0,100,0.00,,,0.00,Meteorologica,2013-01-05 12:43:00,
2013-01-05 07:48:00,28.3,28.3,30.40,NNE,19,0.0,0.0,100,0.00,,,0.00,Meteorologica,2013-01-05 12:48:00,
2013-01-05 07:53:00,28.3,28.3,30.40,NNE,19,0.0,0.0,100,0.00,,,0.00,Meteorologica,2013-01-05 12:53:00,
2013-01-05 07:59:00,28.3,28.3,30.40,NNE,19,0.0,0.0,100,0.00,,,0.00,Meteorologica,2013-01-05 12:59:00,
2013-01-05 08:04:00,28.2,28.2,30.40,NNE,19,0.0,0.0,100,0.00,,,0.00,Meteorologica,2013-01-05 13:04:00,
2013-01-05 08:09:00,28.2,28.2,30.40,NNE,19,0.0,0.0,100,0.00,,,0.00,Meteorologica,2013-01-05 13:09:00,
2013-01-05 08:14:00,28.2,28.2,30.40,NNE,19,0.0,0.0,100,0.00,,,0.00,Meteorologica,2013-01-05 13:14:00,
2013-01-05 08:20:00,28.1,28.1,30.40,NNE,19,0.0,0.0,100,0.00,,,0.00,Meteorologica,2013-01-05 13:20:00,
2013-01-05 08:25:00,28.1,28.1,30.39,NNE,19,0.0,0.0,100,0.00,,,0.00,Meteorologica,2013-01-05 13:25:00,
2013-01-05 08:30:00,28.2,28.2,30.39,NNE,19,0.0,0.0,100,0.00,,,0.00,Meteorologica,2013-01-05 13:30:00,
2013-01-05 08:35:00,28.3,28.3,30.39,NNE,19,0.0,0.0,100,0.00,,,0.00,Meteorologica,2013-01-05 13:35:00,
2013-01-05 08:41:00,28.5,28.5,30.40,NNE,19,0.0,0.0,100,0.00,,,0.00,Meteorologica,2013-01-05 13:41:00,
2013-01-05 08:46:00,28.9,28.9,30.39,NNE,19,0.0,0.0,100,0.00,,,0.00,Meteorologica,2013-01-05 13:46:00,
2013-01-05 08:51:00,29.4,29.4,30.40,NNE,19,0.0,0.0,100,0.00,,,0.00,Meteorologica,2013-01-05 13:51:00,
2013-01-05 08:56:00,29.9,29.1,30.39,NNE,19,0.0,0.0,97,0.00,,,0.00,Meteorologica,2013-01-05 13:56:00,
2013-01-05 09:01:00,30.5,28.5,30.39,NNE,19,0.0,0.0,92,0.00,,,0.00,Meteorologica,2013-01-05 14:01:00,
2013-01-05 09:07:00,31.2,27.3,30.39,NNE,14,2.4,5.1,85,0.00,,,0.00,Meteorologica,2013-01-05 14:07:00,
2013-01-05 09:12:00,32.0,27.0,30.39,NNE,21,5.3,5.3,81,0.00,,,0.00,Meteorologica,2013-01-05 14:12:00,
2013-01-05 09:17:00,32.4,26.6,30.39,NNE,31,2.7,7.5,78,0.00,,,0.00,Meteorologica,2013-01-05 14:17:00,
2013-01-05 09:22:00,32.7,26.7,30.39,NNE,28,2.8,6.1,78,0.00,,,0.00,Meteorologica,2013-01-05 14:22:00,
2013-01-05 09:27:00,32.9,27.0,30.39,North,7,0.9,4.7,78,0.00,,,0.00,Meteorologica,2013-01-05 14:27:00,
2013-01-05 09:32:00,33.2,27.1,30.40,North,7,0.0,2.5,77,0.00,,,0.00,Meteorologica,2013-01-05 14:32:00,
2013-01-05 09:37:00,33.7,27.3,30.40,North,7,0.8,0.0,76,0.00,,,0.00,Meteorologica,2013-01-05 14:37:00,
2013-01-05 09:42:00,34.1,27.3,30.40,ENE,60,1.9,3.2,75,0.00,,,0.00,Meteorologica,2013-01-05 14:42:00,
2013-01-05 09:47:00,34.3,27.4,30.40,NNE,31,0.5,5.5,75,0.00,,,0.00,Meteorologica,2013-01-05 14:47:00,
2013-01-05 09:52:00,34.6,27.8,30.40,NNE,31,0.0,5.8,75,0.00,,,0.00,Meteorologica,2013-01-05 14:52:00,
2013-01-05 09:57:00,35.0,27.9,30.40,NNE,31,0.0,0.0,75,0.00,,,0.00,Meteorologica,2013-01-05 14:57:00,
2013-01-05 10:02:00,35.1,27.8,30.41,NNW,335,0.0,3.7,74,0.00,,,0.00,Meteorologica,2013-01-05 15:02:00,
2013-01-05 10:07:00,35.2,27.6,30.41,NNW,335,0.0,2.4,73,0.00,,,0.00,Meteorologica,2013-01-05 15:07:00,
2013-01-05 10:12:00,35.6,28.3,30.41,NNW,335,0.0,0.0,74,0.00,,,0.00,Meteorologica,2013-01-05 15:12:00,
2013-01-05 10:17:00,35.9,28.5,30.40,NNW,335,0.0,0.0,74,0.00,,,0.00,Meteorologica,2013-01-05 15:17:00,
2013-01-05 10:23:00,36.0,28.6,30.40,NNW,335,0.0,0.0,74,0.00,,,0.00,Meteorologica,2013-01-05 15:23:00,
2013-01-05 10:28:00,36.2,28.4,30.40,NNW,335,0.0,0.0,73,0.00,,,0.00,Meteorologica,2013-01-05 15:28:00,
2013-01-05 10:33:00,36.4,28.3,30.40,NNW,335,0.0,0.0,72,0.00,,,0.00,Meteorologica,2013-01-05 15:33:00,
2013-01-05 10:38:00,36.6,28.0,30.40,NNW,338,2.3,3.0,70,0.00,,,0.00,Meteorologica,2013-01-05 15:38:00,
2013-01-05 10:43:00,36.9,28.1,30.40,NNE,29,1.7,4.2,70,0.00,,,0.00,Meteorologica,2013-01-05 15:43:00,
2013-01-05 10:48:00,37.2,28.3,30.40,NE,36,0.2,5.2,69,0.00,,,0.00,Meteorologica,2013-01-05 15:48:00,
2013-01-05 10:53:00,37.4,28.2,30.40,North,9,0.8,5.3,68,0.00,,,0.00,Meteorologica,2013-01-05 15:53:00,
2013-01-05 10:58:00,37.8,28.7,30.40,NNW,345,0.5,3.9,69,0.00,,,0.00,Meteorologica,2013-01-05 15:58:00,
2013-01-05 11:03:00,38.1,28.7,30.40,North,4,0.0,2.9,68,0.00,,,0.00,Meteorologica,2013-01-05 16:03:00,
2013-01-05 11:08:00,38.4,28.5,30.39,ENE,71,0.2,2.9,67,0.00,,,0.00,Meteorologica,2013-01-05 16:08:00,
2013-01-05 11:13:00,38.9,27.9,30.40,NNE,16,1.6,2.7,64,0.00,,,0.00,Meteorologica,2013-01-05 16:13:00,
2013-01-05 11:18:00,39.2,28.0,30.39,NNE,22,3.1,4.9,63,0.00,,,0.00,Meteorologica,2013-01-05 16:18:00,
2013-01-05 11:23:00,39.5,28.4,30.40,NNE,28,0.0,4.1,64,0.00,,,0.00,Meteorologica,2013-01-05 16:23:00,
2013-01-05 11:28:00,39.8,27.9,30.39,ENE,70,0.5,2.5,62,0.00,,,0.00,Meteorologica,2013-01-05 16:28:00,
2013-01-05 11:33:00,40.3,27.9,30.39,NE,42,0.4,6.1,60,0.00,,,0.00,Meteorologica,2013-01-05 16:33:00,
2013-01-05 11:38:00,40.6,28.6,30.38,NE,45,0.0,3.0,61,0.00,,,0.00,Meteorologica,2013-01-05 16:38:00,
2013-01-05 11:43:00,40.9,27.8,30.38,NE,40,1.3,2.8,59,0.00,,,0.00,Meteorologica,2013-01-05 16:43:00,
2013-01-05 11:48:00,41.1,28.7,30.38,NE,40,0.0,4.0,60,0.00,,,0.00,Meteorologica,2013-01-05 16:48:00,
2013-01-05 11:53:00,41.2,28.8,30.37,NNW,327,0.4,0.0,61,0.00,,,0.00,Meteorologica,2013-01-05 16:53:00,
2013-01-05 11:59:00,41.4,29.2,30.37,ENE,60,0.8,5.4,61,0.00,,,0.00,Meteorologica,2013-01-05 16:59:00,
2013-01-05 12:04:00,41.6,28.7,30.38,NNE,28,0.0,4.2,59,0.00,,,0.00,Meteorologica,2013-01-05 17:04:00,
2013-01-05 12:09:00,41.7,28.9,30.38,East,84,0.0,6.3,60,0.00,,,0.00,Meteorologica,2013-01-05 17:09:00,
2013-01-05 12:14:00,41.9,28.4,30.37,NW,320,2.5,3.4,58,0.00,,,0.00,Meteorologica,2013-01-05 17:14:00,
2013-01-05 12:19:00,42.0,29.1,30.36,NNE,29,0.0,4.8,59,0.00,,,0.00,Meteorologica,2013-01-05 17:19:00,
2013-01-05 12:24:00,42.2,29.5,30.36,NNE,29,0.0,4.7,60,0.00,,,0.00,Meteorologica,2013-01-05 17:24:00,
2013-01-05 12:29:00,42.2,28.7,30.35,WNW,302,1.4,0.0,58,0.00,,,0.00,Meteorologica,2013-01-05 17:29:00,
2013-01-05 12:34:00,42.4,28.6,30.35,North,11,0.9,4.8,57,0.00,,,0.00,Meteorologica,2013-01-05 17:34:00,
2013-01-05 12:39:00,42.7,28.9,30.34,North,11,0.0,3.4,57,0.00,,,0.00,Meteorologica,2013-01-05 17:39:00,
2013-01-05 12:44:00,42.6,28.9,30.34,WNW,299,0.8,0.0,58,0.00,,,0.00,Meteorologica,2013-01-05 17:44:00,
2013-01-05 12:49:00,42.9,28.3,30.33,NE,43,0.0,4.2,56,0.00,,,0.00,Meteorologica,2013-01-05 17:49:00,
2013-01-05 12:54:00,43.0,28.9,30.33,NNE,15,0.0,2.2,57,0.00,,,0.00,Meteorologica,2013-01-05 17:54:00,
2013-01-05 12:59:00,43.2,28.2,30.33,WNW,303,0.9,2.9,55,0.00,,,0.00,Meteorologica,2013-01-05 17:59:00,
2013-01-05 13:04:00,43.3,28.9,30.33,WNW,303,0.0,3.3,56,0.00,,,0.00,Meteorologica,2013-01-05 18:04:00,
2013-01-05 13:09:00,43.5,29.2,30.33,WNW,303,0.0,0.2,56,0.00,,,0.00,Meteorologica,2013-01-05 18:09:00,
2013-01-05 13:14:00,43.9,29.3,30.32,WNW,303,0.0,0.0,56,0.00,,,0.00,Meteorologica,2013-01-05 18:14:00,
2013-01-05 13:19:00,44.1,29.6,30.32,WNW,303,0.0,0.0,56,0.00,,,0.00,Meteorologica,2013-01-05 18:19:00,
2013-01-05 13:24:00,44.7,28.9,30.32,WNW,303,0.0,0.0,53,0.00,,,0.00,Meteorologica,2013-01-05 18:24:00,
2013-01-05 13:29:00,45.0,28.7,30.31,WNW,303,0.0,0.0,52,0.00,,,0.00,Meteorologica,2013-01-05 18:29:00,
2013-01-05 13:34:00,45.3,29.2,30.31,SSE,159,0.1,0.4,53,0.00,,,0.00,Meteorologica,2013-01-05 18:34:00,
2013-01-05 13:39:00,45.5,28.9,30.30,SSE,159,0.0,0.0,52,0.00,,,0.00,Meteorologica,2013-01-05 18:39:00,
2013-01-05 13:45:00,45.6,29.0,30.30,NNE,23,0.0,3.2,52,0.00,,,0.00,Meteorologica,2013-01-05 18:45:00,
2013-01-05 13:50:00,45.7,29.5,30.30,NNE,23,0.0,0.0,53,0.00,,,0.00,Meteorologica,2013-01-05 18:50:00,
2013-01-05 13:55:00,45.6,29.3,30.29,NNE,23,0.0,0.0,52,0.00,,,0.00,Meteorologica,2013-01-05 18:55:00,
2013-01-05 14:00:00,45.8,29.1,30.29,NW,317,0.0,1.4,51,0.00,,,0.00,Meteorologica,2013-01-05 19:00:00,
2013-01-05 14:05:00,45.9,29.5,30.29,WSW,254,0.0,4.5,52,0.00,,,0.00,Meteorologica,2013-01-05 19:05:00,
2013-01-05 14:10:00,46.1,28.8,30.29,NW,304,0.0,2.7,50,0.00,,,0.00,Meteorologica,2013-01-05 19:10:00,
2013-01-05 14:15:00,46.0,28.1,30.28,West,280,0.0,3.2,49,0.00,,,0.00,Meteorologica,2013-01-05 19:15:00,
2013-01-05 14:20:00,46.1,29.0,30.28,West,280,0.0,0.0,50,0.00,,,0.00,Meteorologica,2013-01-05 19:20:00,
2013-01-05 15:00:00,46.8,28.8,30.27,NNE,25,0.0,0.0,49,0.00,,,0.00,Meteorologica,2013-01-05 20:00:00,
2013-01-05 15:05:00,46.8,28.7,30.27,NNE,25,0.0,0.0,49,0.00,,,0.00,Meteorologica,2013-01-05 20:05:00,
2013-01-05 15:10:00,47.0,29.0,30.27,NNE,25,0.0,0.0,49,0.00,,,0.00,Meteorologica,2013-01-05 20:10:00,
2013-01-05 15:15:00,47.1,29.0,30.27,WSW,251,0.3,4.0,49,0.00,,,0.00,Meteorologica,2013-01-05 20:15:00,
2013-01-05 15:20:00,47.2,29.8,30.27,SSW,206,0.6,4.8,50,0.00,,,0.00,Meteorologica,2013-01-05 20:20:00,
2013-01-05 15:25:00,47.4,29.8,30.28,South,169,0.0,3.7,50,0.00,,,0.00,Meteorologica,2013-01-05 20:25:00,
2013-01-05 15:30:00,47.5,29.1,30.27,WSW,245,0.6,3.4,48,0.00,,,0.00,Meteorologica,2013-01-05 20:30:00,
2013-01-05 15:35:00,47.6,29.1,30.27,SW,215,2.5,5.1,48,0.00,,,0.00,Meteorologica,2013-01-05 20:35:00,
2013-01-05 15:40:00,47.7,29.3,30.27,SW,217,0.0,4.2,49,0.00,,,0.00,Meteorologica,2013-01-05 20:40:00,
2013-01-05 15:45:00,47.7,29.6,30.27,SW,217,0.0,0.0,49,0.00,,,0.00,Meteorologica,2013-01-05 20:45:00,
2013-01-05 15:51:00,47.7,29.5,30.27,South,186,1.2,3.6,49,0.00,,,0.00,Meteorologica,2013-01-05 20:51:00,
2013-01-05 15:56:00,47.7,29.1,30.27,SSE,155,0.0,1.7,48,0.00,,,0.00,Meteorologica,2013-01-05 20:56:00,
2013-01-05 16:01:00,47.8,29.0,30.27,SSE,155,0.0,0.0,48,0.00,,,0.00,Meteorologica,2013-01-05 21:01:00,
2013-01-05 16:06:00,47.8,29.0,30.27,SSE,155,0.0,0.0,47,0.00,,,0.00,Meteorologica,2013-01-05 21:06:00,
2013-01-05 16:11:00,47.7,29.4,30.27,SW,224,1.2,3.0,48,0.00,,,0.00,Meteorologica,2013-01-05 21:11:00,
2013-01-05 16:16:00,47.7,29.6,30.26,SW,224,0.0,2.6,49,0.00,,,0.00,Meteorologica,2013-01-05 21:16:00,
2013-01-05 16:21:00,47.7,29.8,30.26,SW,224,0.0,0.0,49,0.00,,,0.00,Meteorologica,2013-01-05 21:21:00,
2013-01-05 16:27:00,47.6,29.7,30.27,SW,224,0.0,0.0,49,0.00,,,0.00,Meteorologica,2013-01-05 21:27:00,
2013-01-05 16:32:00,47.6,28.9,30.27,SSW,208,1.0,0.0,48,0.00,,,0.00,Meteorologica,2013-01-05 21:32:00,
2013-01-05 16:37:00,47.4,29.2,30.27,SSW,208,0.0,3.2,49,0.00,,,0.00,Meteorologica,2013-01-05 21:37:00,
2013-01-05 16:42:00,47.6,29.6,30.27,SSW,201,0.0,0.8,49,0.00,,,0.00,Meteorologica,2013-01-05 21:42:00,
2013-01-05 16:47:00,47.6,29.5,30.27,SW,232,1.2,2.9,49,0.00,,,0.00,Meteorologica,2013-01-05 21:47:00,
2013-01-05 16:52:00,47.4,29.2,30.28,South,179,0.4,3.2,49,0.00,,,0.00,Meteorologica,2013-01-05 21:52:00,
2013-01-05 16:57:00,47.4,29.1,30.28,SW,230,0.0,3.3,49,0.00,,,0.00,Meteorologica,2013-01-05 21:57:00,
2013-01-05 17:02:00,47.3,29.5,30.28,SW,230,0.0,0.9,49,0.00,,,0.00,Meteorologica,2013-01-05 22:02:00,
2013-01-05 17:07:00,47.4,29.6,30.27,SW,230,0.0,0.0,49,0.00,,,0.00,Meteorologica,2013-01-05 22:07:00,
2013-01-05 17:12:00,47.2,29.8,30.27,SW,230,0.0,0.0,50,0.00,,,0.00,Meteorologica,2013-01-05 22:12:00,
2013-01-05 17:17:00,47.2,29.5,30.28,SW,230,0.0,0.0,50,0.00,,,0.00,Meteorologica,2013-01-05 22:17:00,
2013-01-05 17:22:00,47.2,29.8,30.28,SW,230,0.0,0.0,50,0.00,,,0.00,Meteorologica,2013-01-05 22:22:00,
2013-01-05 17:27:00,47.2,30.2,30.27,SW,230,0.0,0.0,51,0.00,,,0.00,Meteorologica,2013-01-05 22:27:00,
2013-01-05 17:33:00,47.0,29.9,30.26,SW,230,0.0,0.0,51,0.00,,,0.00,Meteorologica,2013-01-05 22:33:00,
2013-01-05 17:38:00,46.8,30.2,30.25,SW,230,0.0,0.0,52,0.00,,,0.00,Meteorologica,2013-01-05 22:38:00,
2013-01-05 17:43:00,46.8,30.7,30.26,SW,230,0.0,0.0,53,0.00,,,0.00,Meteorologica,2013-01-05 22:43:00,
2013-01-05 17:47:00,46.6,30.5,30.27,SW,230,0.0,0.0,53,0.00,,,0.00,Meteorologica,2013-01-05 22:47:00,
2013-01-05 17:52:00,46.5,30.1,30.28,SW,230,0.0,0.0,52,0.00,,,0.00,Meteorologica,2013-01-05 22:52:00,
2013-01-05 17:57:00,46.3,29.6,30.27,SW,230,0.0,0.0,52,0.00,,,0.00,Meteorologica,2013-01-05 22:57:00,
2013-01-05 18:03:00,46.3,29.7,30.26,SW,230,0.0,0.0,52,0.00,,,0.00,Meteorologica,2013-01-05 23:03:00,
2013-01-05 18:08:00,46.3,30.6,30.28,SW,230,0.0,0.0,54,0.00,,,0.00,Meteorologica,2013-01-05 23:08:00,
2013-01-05 18:13:00,46.1,30.9,30.29,SW,230,0.0,0.0,55,0.00,,,0.00,Meteorologica,2013-01-05 23:13:00,
2013-01-05 18:18:00,46.2,30.9,30.29,SW,230,0.0,0.0,54,0.00,,,0.00,Meteorologica,2013-01-05 23:18:00,
2013-01-05 18:23:00,46.0,30.3,30.29,SW,230,0.0,0.0,54,0.00,,,0.00,Meteorologica,2013-01-05 23:23:00,
2013-01-05 18:28:00,46.0,30.4,30.28,SW,230,0.0,0.0,54,0.00,,,0.00,Meteorologica,2013-01-05 23:28:00,
2013-01-05 18:33:00,45.9,31.3,30.29,SW,230,0.0,0.0,56,0.00,,,0.00,Meteorologica,2013-01-05 23:33:00,
2013-01-05 18:39:00,46.0,30.5,30.29,SW,215,0.0,0.0,54,0.00,,,0.00,Meteorologica,2013-01-05 23:39:00,
2013-01-05 18:44:00,46.0,30.5,30.28,SE,146,0.1,3.1,54,0.00,,,0.00,Meteorologica,2013-01-05 23:44:00,
2013-01-05 18:49:00,45.8,30.2,30.28,South,178,1.5,3.3,54,0.00,,,0.00,Meteorologica,2013-01-05 23:49:00,
2013-01-05 18:54:00,45.8,30.3,30.29,SW,218,0.0,3.7,54,0.00,,,0.00,Meteorologica,2013-01-05 23:54:00,
2013-01-05 18:59:00,45.7,30.1,30.30,SW,218,0.0,3.3,54,0.00,,,0.00,Meteorologica,2013-01-05 23:59:00,
2013-01-05 19:04:00,45.6,30.0,30.30,SSE,167,1.0,1.0,54,0.00,,,0.00,Meteorologica,2013-01-06 00:04:00,
2013-01-05 19:09:00,45.7,30.5,30.30,South,170,0.1,2.9,55,0.00,,,0.00,Meteorologica,2013-01-06 00:09:00,
2013-01-05 19:14:00,45.6,31.4,30.31,South,190,0.0,2.7,57,0.00,,,0.00,Meteorologica,2013-01-06 00:14:00,
2013-01-05 19:19:00,45.6,32.6,30.30,South,190,1.7,2.0,60,0.00,,,0.00,Meteorologica,2013-01-06 00:19:00,
2013-01-05 19:24:00,45.5,32.6,30.30,SE,135,0.0,5.0,60,0.00,,,0.00,Meteorologica,2013-01-06 00:24:00,
2013-01-05 19:29:00,45.4,32.4,30.30,South,177,0.0,4.2,59,0.00,,,0.00,Meteorologica,2013-01-06 00:29:00,
2013-01-05 19:34:00,45.3,33.1,30.30,SSE,165,1.6,4.8,61,0.00,,,0.00,Meteorologica,2013-01-06 00:34:00,
2013-01-05 19:39:00,45.2,33.7,30.28,SSE,165,0.0,4.8,63,0.00,,,0.00,Meteorologica,2013-01-06 00:39:00,
2013-01-05 19:44:00,44.8,33.7,30.29,SSW,199,2.1,0.0,64,0.00,,,0.00,Meteorologica,2013-01-06 00:44:00,
2013-01-05 19:49:00,44.5,33.4,30.30,SSW,202,2.2,5.1,64,0.00,,,0.00,Meteorologica,2013-01-06 00:49:00,
2013-01-05 19:54:00,44.4,33.8,30.31,SW,217,1.0,6.3,65,0.00,,,0.00,Meteorologica,2013-01-06 00:54:00,
2013-01-05 19:59:00,44.3,34.0,30.31,SW,217,0.0,3.9,66,0.00,,,0.00,Meteorologica,2013-01-06 00:59:00,
2013-01-05 20:04:00,44.1,34.2,30.31,SW,217,0.0,0.0,67,0.00,,,0.00,Meteorologica,2013-01-06 01:04:00,
2013-01-05 20:09:00,44.1,35.0,30.31,SW,217,0.0,0.0,69,0.00,,,0.00,Meteorologica,2013-01-06 01:09:00,
2013-01-05 20:14:00,44.1,35.4,30.30,SW,217,0.0,0.0,71,0.00,,,0.00,Meteorologica,2013-01-06 01:14:00,
2013-01-05 20:19:00,44.0,35.0,30.29,SW,225,1.2,4.7,70,0.00,,,0.00,Meteorologica,2013-01-06 01:19:00,
2013-01-05 20:24:00,43.7,34.8,30.29,SSE,161,5.4,8.2,70,0.00,,,0.00,Meteorologica,2013-01-06 01:24:00,
2013-01-05 20:29:00,43.6,34.9,30.29,South,189,4.6,10.4,71,0.00,,,0.00,Meteorologica,2013-01-06 01:29:00,
2013-01-05 20:34:00,43.6,35.2,30.29,SSW,204,4.1,7.6,71,0.00,,,0.00,Meteorologica,2013-01-06 01:34:00,
2013-01-05 20:40:00,43.5,35.6,30.29,SSW,206,3.2,6.3,73,0.00,,,0.00,Meteorologica,2013-01-06 01:40:00,
2013-01-05 20:45:00,43.5,36.0,30.29,South,172,3.0,5.7,74,0.00,,,0.00,Meteorologica,2013-01-06 01:45:00,
2013-01-05 20:50:00,43.3,36.1,30.29,SSW,199,1.7,6.1,75,0.00,,,0.00,Meteorologica,2013-01-06 01:50:00,
2013-01-05 20:55:00,43.3,36.6,30.29,South,188,3.7,5.6,76,0.00,,,0.00,Meteorologica,2013-01-06 01:55:00,
2013-01-05 21:00:00,43.2,36.7,30.29,SSW,204,2.8,7.2,77,0.00,,,0.00,Meteorologica,2013-01-06 02:00:00,
2013-01-05 21:05:00,43.0,37.0,30.29,SSW,203,3.1,5.9,79,0.00,,,0.00,Meteorologica,2013-01-06 02:05:00,
2013-01-05 21:10:00,42.8,37.2,30.29,SSW,201,3.3,6.3,80,0.00,,,0.00,Meteorologica,2013-01-06 02:10:00,
2013-01-05 21:15:00,42.6,37.2,30.29,SW,214,1.0,5.4,81,0.00,,,0.00,Meteorologica,2013-01-06 02:15:00,
2013-01-05 21:20:00,42.6,37.6,30.29,SSW,207,0.0,4.1,82,0.01,,,0.01,Meteorologica,2013-01-06 02:20:00,
2013-01-05 21:25:00,42.5,37.9,30.29,South,189,1.3,4.0,83,0.01,,,0.01,Meteorologica,2013-01-06 02:25:00,
2013-01-05 21:30:00,42.4,38.0,30.29,South,175,3.5,4.5,84,0.01,,,0.01,Meteorologica,2013-01-06 02:30:00,
2013-01-05 21:35:00,42.4,38.2,30.29,SW,224,2.7,4.3,85,0.01,,,0.01,Meteorologica,2013-01-06 02:35:00,
2013-01-05 21:40:00,42.2,38.4,30.29,SSE,160,0.0,3.7,86,0.01,,,0.01,Meteorologica,2013-01-06 02:40:00,
2013-01-05 21:45:00,42.1,38.4,30.29,SSW,210,0.0,3.8,86,0.01,,,0.01,Meteorologica,2013-01-06 02:45:00,
2013-01-05 21:50:00,42.0,39.0,30.29,SSW,193,1.2,2.5,89,0.01,,,0.01,Meteorologica,2013-01-06 02:50:00,
2013-01-05 21:55:00,41.8,39.3,30.30,West,261,2.4,5.0,91,0.01,,,0.01,Meteorologica,2013-01-06 02:55:00,
2013-01-05 22:00:00,41.7,39.2,30.30,SW,218,3.6,3.6,90,0.01,,,0.01,Meteorologica,2013-01-06 03:00:00,
2013-01-05 22:05:00,41.6,39.0,30.30,WSW,251,0.4,7.2,90,0.02,,,0.02,Meteorologica,2013-01-06 03:05:00,
2013-01-05 22:10:00,41.5,39.2,30.30,WSW,251,0.0,1.7,91,0.02,,,0.02,Meteorologica,2013-01-06 03:10:00,
2013-01-05 22:15:00,41.6,39.9,30.30,WSW,251,0.0,0.0,93,0.01,,,0.02,Meteorologica,2013-01-06 03:15:00,
2013-01-05 22:20:00,41.4,40.3,30.30,WSW,251,0.0,0.0,96,0.01,,,0.02,Meteorologica,2013-01-06 03:20:00,
2013-01-05 22:25:00,41.4,41.0,30.29,WSW,251,0.0,0.0,98,0.01,,,0.02,Meteorologica,2013-01-06 03:25:00,
2013-01-05 22:30:00,41.4,41.4,30.29,WSW,251,0.0,0.0,100,0.01,,,0.02,Meteorologica,2013-01-06 03:30:00,
2013-01-05 22:36:00,41.3,41.3,30.29,WSW,251,0.0,0.0,100,0.01,,,0.02,Meteorologica,2013-01-06 03:36:00,
2013-01-05 22:41:00,41.2,41.2,30.29,WSW,251,0.0,0.0,100,0.01,,,0.02,Meteorologica,2013-01-06 03:41:00,
2013-01-05 22:46:00,41.2,41.2,30.29,WSW,251,0.0,0.0,100,0.01,,,0.02,Meteorologica,2013-01-06 03:46:00,
2013-01-05 22:51:00,41.1,41.1,30.29,WSW,251,0.0,0.0,100,0.01,,,0.02,Meteorologica,2013-01-06 03:51:00,
2013-01-05 22:56:00,41.0,41.0,30.29,WSW,251,0.0,0.0,100,0.01,,,0.02,Meteorologica,2013-01-06 03:56:00,
2013-01-05 23:01:00,41.0,41.0,30.29,WSW,251,0.0,0.0,100,0.00,,,0.02,Meteorologica,2013-01-06 04:01:00,
2013-01-05 23:07:00,40.9,40.9,30.29,WSW,251,0.0,0.0,100,0.00,,,0.02,Meteorologica,2013-01-06 04:07:00,
2013-01-05 23:12:00,40.9,40.9,30.28,WSW,251,0.0,0.0,100,0.00,,,0.02,Meteorologica,2013-01-06 04:12:00,
2013-01-05 23:17:00,40.9,40.9,30.29,WSW,251,0.0,0.0,100,0.00,,,0.02,Meteorologica,2013-01-06 04:17:00,
2013-01-05 23:23:00,40.8,40.8,30.28,WSW,251,0.0,0.0,100,0.00,,,0.02,Meteorologica,2013-01-06 04:23:00,
2013-01-05 23:28:00,40.9,40.9,30.28,WSW,251,0.0,0.0,100,0.00,,,0.02,Meteorologica,2013-01-06 04:28:00,
2013-01-05 23:33:00,40.8,40.8,30.28,WSW,251,0.0,0.0,100,0.00,,,0.02,Meteorologica,2013-01-06 04:33:00,
2013-01-05 23:38:00,40.7,40.7,30.28,WSW,251,0.0,0.0,100,0.00,,,0.02,Meteorologica,2013-01-06 04:38:00,
2013-01-05 23:43:00,40.7,40.7,30.28,WSW,251,0.0,0.0,100,0.00,,,0.02,Meteorologica,2013-01-06 04:43:00,
2013-01-05 23:48:00,40.7,40.7,30.27,WSW,251,0.0,0.0,100,0.00,,,0.02,Meteorologica,2013-01-06 04:48:00,
2013-01-05 23:53:00,40.7,40.7,30.28,WSW,251,0.0,0.0,100,0.00,,,0.02,Meteorologica,2013-01-06 04:53:00,
2013-01-05 23:58:00,40.6,40.6,30.27,SSW,200,2.9,0.0,100,0.00,,,0.02,Meteorologica,2013-01-06 04:58:00,